Time,TemperatureF,DewpointF,PressureIn,WindDirection,WindDirectionDegrees,WindSpeedMPH,WindSpeedGustMPH,Humidity,HourlyPrecipIn,Conditions,Clouds,dailyrainin,SoftwareType,DateUTC
2013-01-11 00:03:00,28.0,24.0,30.52,WSW,248,3.0,7.0,85,0.00,,,0.00,,2013-01-11 05:03:00,
2013-01-11 00:13:00,28.0,24.0,30.52,WSW,248,3.0,7.0,85,0.00,,,0.00,,2013-01-11 05:13:00,
2013-01-11 00:22:00,27.0,23.0,30.51,WSW,248,1.0,3.0,85,0.00,,,0.00,,2013-01-11 05:22:00,
2013-01-11 00:33:00,27.0,23.0,30.51,SSW,202,0.0,1.0,85,0.00,,,0.00,,2013-01-11 05:33:00,
2013-01-11 00:43:00,27.0,23.0,30.51,SSW,202,0.0,1.0,85,0.00,,,0.00,,2013-01-11 05:43:00,
2013-01-11 00:53:00,28.0,24.0,30.50,SW,225,2.0,7.0,84,0.00,,,0.00,,2013-01-11 05:53:00,
2013-01-11 01:03:00,28.0,24.0,30.50,SSW,202,0.0,1.0,83,0.00,,,0.00,,2013-01-11 06:03:00,
2013-01-11 01:12:00,28.0,24.0,30.50,SSW,202,0.0,1.0,83,0.00,,,0.00,,2013-01-11 06:12:00,
2013-01-11 01:22:00,28.0,24.0,30.49,WSW,248,1.0,3.0,83,0.00,,,0.00,,2013-01-11 06:22:00,
2013-01-11 01:32:00,27.0,23.0,30.49,SSW,202,1.0,1.0,84,0.00,,,0.00,,2013-01-11 06:32:00,
2013-01-11 01:42:00,27.0,23.0,30.49,SSW,202,1.0,1.0,84,0.00,,,0.00,,2013-01-11 06:42:00,
2013-01-11 01:52:00,27.0,23.0,30.49,WSW,248,0.0,2.0,85,0.00,,,0.00,,2013-01-11 06:52:00,
2013-01-11 02:02:00,26.0,22.0,30.49,SSW,202,0.0,0.0,86,0.00,,,0.00,,2013-01-11 07:02:00,
2013-01-11 02:12:00,26.0,23.0,30.50,SSW,202,0.0,1.0,88,0.00,,,0.00,,2013-01-11 07:12:00,
2013-01-11 02:22:00,26.0,23.0,30.50,SSW,202,0.0,1.0,88,0.00,,,0.00,,2013-01-11 07:22:00,
2013-01-11 02:32:00,26.0,23.0,30.50,SW,225,1.0,3.0,88,0.00,,,0.00,,2013-01-11 07:32:00,
2013-01-11 02:42:00,25.0,22.0,30.50,SW,225,2.0,3.0,88,0.00,,,0.00,,2013-01-11 07:42:00,
2013-01-11 02:52:00,25.0,22.0,30.50,SW,225,2.0,3.0,88,0.00,,,0.00,,2013-01-11 07:52:00,
2013-01-11 03:02:00,25.0,22.0,30.49,SSW,202,0.0,1.0,89,0.00,,,0.00,,2013-01-11 08:02:00,
2013-01-11 03:12:00,25.0,22.0,30.49,SW,225,1.0,3.0,89,0.00,,,0.00,,2013-01-11 08:12:00,
2013-01-11 03:22:00,25.0,22.0,30.49,SW,225,1.0,3.0,89,0.00,,,0.00,,2013-01-11 08:22:00,
2013-01-11 03:32:00,25.0,22.0,30.49,SW,225,0.0,1.0,89,0.00,,,0.00,,2013-01-11 08:32:00,
2013-01-11 03:42:00,25.0,22.0,30.49,SW,225,0.0,1.0,89,0.00,,,0.00,,2013-01-11 08:42:00,
2013-01-11 03:53:00,25.0,22.0,30.49,West,270,1.0,1.0,89,0.00,,,0.00,,2013-01-11 08:53:00,
2013-01-11 04:02:00,24.0,21.0,30.47,SW,225,1.0,1.0,89,0.00,,,0.00,,2013-01-11 09:02:00,
2013-01-11 04:12:00,24.0,21.0,30.47,SW,225,1.0,1.0,89,0.00,,,0.00,,2013-01-11 09:12:00,
2013-01-11 04:23:00,24.0,22.0,30.47,SW,225,1.0,3.0,90,0.00,,,0.00,,2013-01-11 09:23:00,
2013-01-11 04:32:00,24.0,22.0,30.47,West,270,0.0,1.0,90,0.00,,,0.00,,2013-01-11 09:32:00,
2013-01-11 04:42:00,24.0,22.0,30.47,West,270,0.0,1.0,90,0.00,,,0.00,,2013-01-11 09:42:00,
2013-01-11 04:52:00,24.0,22.0,30.47,SSW,202,1.0,1.0,91,0.00,,,0.00,,2013-01-11 09:52:00,
2013-01-11 05:02:00,24.0,22.0,30.47,WSW,248,1.0,3.0,91,0.00,,,0.00,,2013-01-11 10:02:00,
2013-01-11 05:12:00,24.0,22.0,30.47,WSW,248,1.0,3.0,91,0.00,,,0.00,,2013-01-11 10:12:00,
2013-01-11 05:22:00,24.0,22.0,30.47,SW,225,2.0,4.0,91,0.00,,,0.00,,2013-01-11 10:22:00,
2013-01-11 05:32:00,24.0,22.0,30.47,SW,225,1.0,3.0,91,0.00,,,0.00,,2013-01-11 10:32:00,
2013-01-11 05:42:00,24.0,22.0,30.47,SW,225,1.0,3.0,91,0.00,,,0.00,,2013-01-11 10:42:00,
2013-01-11 05:53:00,23.0,21.0,30.47,WSW,248,2.0,6.0,91,0.00,,,0.00,,2013-01-11 10:53:00,
2013-01-11 06:03:00,23.0,21.0,30.47,WSW,248,3.0,6.0,91,0.00,,,0.00,,2013-01-11 11:03:00,
2013-01-11 06:12:00,23.0,21.0,30.47,WSW,248,3.0,6.0,91,0.00,,,0.00,,2013-01-11 11:12:00,
2013-01-11 06:22:00,24.0,22.0,30.47,SW,225,1.0,2.0,91,0.00,,,0.00,,2013-01-11 11:22:00,
2013-01-11 06:33:00,24.0,22.0,30.47,SSW,202,1.0,3.0,91,0.00,,,0.00,,2013-01-11 11:33:00,
2013-01-11 06:42:00,24.0,22.0,30.47,SSW,202,1.0,3.0,91,0.00,,,0.00,,2013-01-11 11:42:00,
2013-01-11 06:53:00,23.0,21.0,30.47,SW,225,1.0,2.0,91,0.00,,,0.00,,2013-01-11 11:53:00,
2013-01-11 07:03:00,23.0,21.0,30.47,NW,315,1.0,2.0,91,0.00,,,0.00,,2013-01-11 12:03:00,
2013-01-11 07:12:00,23.0,21.0,30.47,NW,315,1.0,2.0,91,0.00,,,0.00,,2013-01-11 12:12:00,
2013-01-11 07:22:00,23.0,21.0,30.50,SW,225,2.0,3.0,92,0.00,,,0.00,,2013-01-11 12:22:00,
2013-01-11 07:33:00,23.0,21.0,30.50,West,270,0.0,1.0,91,0.00,,,0.00,,2013-01-11 12:33:00,
2013-01-11 07:43:00,23.0,21.0,30.50,West,270,0.0,1.0,91,0.00,,,0.00,,2013-01-11 12:43:00,
2013-01-11 07:53:00,24.0,22.0,30.51,SSW,202,0.0,1.0,90,0.00,,,0.00,,2013-01-11 12:53:00,
2013-01-11 08:03:00,25.0,22.0,30.52,WSW,248,2.0,3.0,89,0.00,,,0.00,,2013-01-11 13:03:00,
2013-01-11 08:13:00,25.0,22.0,30.52,WSW,248,2.0,3.0,89,0.00,,,0.00,,2013-01-11 13:13:00,
2013-01-11 08:22:00,26.0,23.0,30.52,WSW,248,2.0,5.0,87,0.00,,,0.00,,2013-01-11 13:22:00,
2013-01-11 08:33:00,26.0,23.0,30.53,WSW,248,1.0,2.0,87,0.00,,,0.00,,2013-01-11 13:33:00,
2013-01-11 08:42:00,26.0,23.0,30.53,WSW,248,1.0,2.0,87,0.00,,,0.00,,2013-01-11 13:42:00,
2013-01-11 08:53:00,29.0,24.0,30.51,WNW,292,2.0,3.0,82,0.00,,,0.00,,2013-01-11 13:53:00,
2013-01-11 09:03:00,30.0,25.0,30.51,NNE,22,1.0,3.0,80,0.00,,,0.00,,2013-01-11 14:03:00,
2013-01-11 09:12:00,30.0,25.0,30.51,NNE,22,1.0,3.0,80,0.00,,,0.00,,2013-01-11 14:12:00,
2013-01-11 09:23:00,31.0,24.0,30.51,NNW,338,3.0,5.0,75,0.00,,,0.00,,2013-01-11 14:23:00,
2013-01-11 09:33:00,32.0,24.0,30.51,NNW,338,4.0,6.0,71,0.00,,,0.00,,2013-01-11 14:33:00,
2013-01-11 09:43:00,33.0,24.0,30.51,NW,315,5.0,6.0,70,0.00,,,0.00,,2013-01-11 14:43:00,
2013-01-11 09:53:00,33.0,24.0,30.51,NW,315,5.0,6.0,70,0.00,,,0.00,,2013-01-11 14:53:00,
2013-01-11 10:03:00,34.0,25.0,30.51,WNW,292,3.0,6.0,68,0.00,,,0.00,,2013-01-11 15:03:00,
2013-01-11 10:13:00,35.0,24.0,30.51,NW,315,2.0,4.0,65,0.00,,,0.00,,2013-01-11 15:13:00,
2013-01-11 10:23:00,35.0,24.0,30.51,NW,315,2.0,4.0,65,0.00,,,0.00,,2013-01-11 15:23:00,
2013-01-11 10:33:00,36.0,25.0,30.50,NNE,22,4.0,6.0,64,0.00,,,0.00,,2013-01-11 15:33:00,
2013-01-11 10:43:00,36.0,25.0,30.50,NNE,22,4.0,6.0,64,0.00,,,0.00,,2013-01-11 15:43:00,
2013-01-11 10:53:00,36.0,24.0,30.49,NNE,22,5.0,7.0,62,0.00,,,0.00,,2013-01-11 15:53:00,
2013-01-11 11:03:00,36.0,23.0,30.47,NNW,338,4.0,6.0,59,0.00,,,0.00,,2013-01-11 16:03:00,
2013-01-11 11:12:00,37.0,24.0,30.46,WNW,292,3.0,4.0,58,0.00,,,0.00,,2013-01-11 16:12:00,
2013-01-11 11:23:00,37.0,24.0,30.46,WNW,292,3.0,4.0,58,0.00,,,0.00,,2013-01-11 16:23:00,
2013-01-11 11:33:00,38.0,25.0,30.46,NNE,22,3.0,3.0,58,0.00,,,0.00,,2013-01-11 16:33:00,
2013-01-11 11:43:00,38.0,25.0,30.46,NNE,22,3.0,3.0,58,0.00,,,0.00,,2013-01-11 16:43:00,
2013-01-11 11:53:00,39.0,25.0,30.44,NNW,338,2.0,3.0,56,0.00,,,0.00,,2013-01-11 16:53:00,
2013-01-11 12:03:00,39.0,25.0,30.43,NNE,22,2.0,3.0,56,0.00,,,0.00,,2013-01-11 17:03:00,
2013-01-11 12:12:00,39.0,24.0,30.43,ENE,68,1.0,2.0,54,0.00,,,0.00,,2013-01-11 17:12:00,
2013-01-11 12:22:00,39.0,24.0,30.43,ENE,68,1.0,2.0,54,0.00,,,0.00,,2013-01-11 17:22:00,
2013-01-11 12:33:00,40.0,24.0,30.42,North,0,2.0,3.0,53,0.00,,,0.00,,2013-01-11 17:33:00,
2013-01-11 12:43:00,40.0,24.0,30.42,North,0,2.0,3.0,53,0.00,,,0.00,,2013-01-11 17:43:00,
2013-01-11 12:53:00,39.0,22.0,30.42,ESE,112,3.0,3.0,51,0.00,,,0.00,,2013-01-11 17:53:00,
2013-01-11 13:03:00,40.0,24.0,30.41,ENE,68,1.0,2.0,53,0.00,,,0.00,,2013-01-11 18:03:00,
2013-01-11 13:13:00,40.0,24.0,30.41,ENE,68,1.0,2.0,53,0.00,,,0.00,,2013-01-11 18:13:00,
2013-01-11 13:23:00,40.0,23.0,30.42,East,90,3.0,5.0,50,0.00,,,0.00,,2013-01-11 18:23:00,
2013-01-11 13:33:00,40.0,23.0,30.41,SE,135,3.0,5.0,51,0.00,,,0.00,,2013-01-11 18:33:00,
2013-01-11 13:43:00,40.0,23.0,30.41,SE,135,3.0,5.0,51,0.00,,,0.00,,2013-01-11 18:43:00,
2013-01-11 13:53:00,41.0,25.0,30.40,SW,225,0.0,1.0,52,0.00,,,0.00,,2013-01-11 18:53:00,
2013-01-11 14:03:00,41.0,25.0,30.40,ENE,68,2.0,3.0,52,0.00,,,0.00,,2013-01-11 19:03:00,
2013-01-11 14:12:00,41.0,25.0,30.40,ENE,68,2.0,3.0,52,0.00,,,0.00,,2013-01-11 19:12:00,
2013-01-11 14:22:00,39.0,24.0,30.40,ESE,112,3.0,3.0,54,0.00,,,0.00,,2013-01-11 19:22:00,
2013-01-11 14:33:00,39.0,25.0,30.39,SE,135,1.0,2.0,57,0.00,,,0.00,,2013-01-11 19:33:00,
2013-01-11 14:43:00,39.0,25.0,30.39,SE,135,1.0,2.0,57,0.00,,,0.00,,2013-01-11 19:43:00,
2013-01-11 14:54:00,38.0,25.0,30.39,East,90,1.0,3.0,59,0.00,,,0.00,,2013-01-11 19:54:00,
2013-01-11 15:03:00,38.0,25.0,30.39,ESE,112,1.0,3.0,59,0.00,,,0.00,,2013-01-11 20:03:00,
2013-01-11 15:12:00,38.0,25.0,30.39,ESE,112,1.0,3.0,59,0.00,,,0.00,,2013-01-11 20:12:00,
2013-01-11 15:22:00,37.0,25.0,30.38,East,90,0.0,1.0,61,0.00,,,0.00,,2013-01-11 20:22:00,
2013-01-11 15:33:00,37.0,26.0,30.38,SSW,202,0.0,0.0,64,0.00,,,0.00,,2013-01-11 20:33:00,
2013-01-11 15:43:00,37.0,26.0,30.38,SSW,202,0.0,0.0,64,0.00,,,0.00,,2013-01-11 20:43:00,
2013-01-11 15:53:00,36.0,26.0,30.37,SSW,202,0.0,0.0,66,0.00,,,0.00,,2013-01-11 20:53:00,
2013-01-11 16:03:00,36.0,27.0,30.36,SSW,202,0.0,0.0,69,0.00,,,0.00,,2013-01-11 21:03:00,
2013-01-11 16:12:00,36.0,27.0,30.36,SSW,202,0.0,0.0,69,0.00,,,0.00,,2013-01-11 21:12:00,
2013-01-11 16:23:00,35.0,27.0,30.36,SSW,202,0.0,1.0,71,0.00,,,0.00,,2013-01-11 21:23:00,
2013-01-11 16:33:00,34.0,26.0,30.36,SSW,202,0.0,1.0,72,0.00,,,0.00,,2013-01-11 21:33:00,
2013-01-11 16:42:00,34.0,26.0,30.36,SSW,202,0.0,1.0,72,0.00,,,0.00,,2013-01-11 21:42:00,
2013-01-11 16:53:00,34.0,27.0,30.36,SW,225,0.0,1.0,75,0.00,,,0.00,,2013-01-11 21:53:00,
2013-01-11 17:03:00,34.0,28.0,30.35,SSW,202,0.0,0.0,78,0.00,,,0.00,,2013-01-11 22:03:00,
2013-01-11 17:12:00,34.0,28.0,30.35,SSW,202,0.0,0.0,78,0.00,,,0.00,,2013-01-11 22:12:00,
2013-01-11 17:22:00,33.0,26.0,30.33,SW,225,0.0,1.0,76,0.00,,,0.00,,2013-01-11 22:22:00,
2013-01-11 17:33:00,33.0,27.0,30.33,SW,225,0.0,1.0,78,0.00,,,0.00,,2013-01-11 22:33:00,
2013-01-11 17:42:00,33.0,27.0,30.33,SW,225,0.0,1.0,78,0.00,,,0.00,,2013-01-11 22:42:00,
2013-01-11 17:53:00,33.0,27.0,30.34,South,180,0.0,1.0,79,0.00,,,0.00,,2013-01-11 22:53:00,
2013-01-11 18:02:00,33.0,28.0,30.34,SE,135,0.0,0.0,80,0.00,,,0.00,,2013-01-11 23:02:00,
2013-01-11 18:13:00,33.0,28.0,30.34,SE,135,0.0,0.0,80,0.00,,,0.00,,2013-01-11 23:13:00,
2013-01-11 18:23:00,33.0,28.0,30.34,SSW,202,0.0,0.0,82,0.00,,,0.00,,2013-01-11 23:23:00,
2013-01-11 18:32:00,33.0,28.0,30.33,NNW,338,1.0,1.0,83,0.00,,,0.00,,2013-01-11 23:32:00,
2013-01-11 18:43:00,33.0,28.0,30.33,NNW,338,1.0,1.0,83,0.00,,,0.00,,2013-01-11 23:43:00,
2013-01-11 18:53:00,33.0,28.0,30.33,WSW,248,0.0,1.0,83,0.00,,,0.00,,2013-01-11 23:53:00,
2013-01-11 19:02:00,33.0,29.0,30.33,SSW,202,0.0,0.0,84,0.00,,,0.00,,2013-01-12 00:02:00,
2013-01-11 19:12:00,33.0,29.0,30.33,SSW,202,0.0,0.0,84,0.00,,,0.00,,2013-01-12 00:12:00,
2013-01-11 19:23:00,33.0,29.0,30.33,SSW,202,0.0,0.0,84,0.00,,,0.00,,2013-01-12 00:23:00,
2013-01-11 19:33:00,33.0,29.0,30.33,SSW,202,0.0,0.0,85,0.00,,,0.00,,2013-01-12 00:33:00,
2013-01-11 19:43:00,33.0,29.0,30.33,SSW,202,0.0,0.0,85,0.00,,,0.00,,2013-01-12 00:43:00,
2013-01-11 19:53:00,33.0,29.0,30.33,SSW,202,0.0,0.0,84,0.00,,,0.00,,2013-01-12 00:53:00,
2013-01-11 20:02:00,33.0,29.0,30.32,SSW,202,0.0,0.0,85,0.00,,,0.00,,2013-01-12 01:02:00,
2013-01-11 20:12:00,33.0,29.0,30.32,SSW,202,0.0,0.0,85,0.00,,,0.00,,2013-01-12 01:12:00,
2013-01-11 20:22:00,33.0,29.0,30.32,South,180,0.0,0.0,86,0.00,,,0.00,,2013-01-12 01:22:00,
2013-01-11 20:33:00,33.0,29.0,30.32,South,180,0.0,0.0,86,0.00,,,0.00,,2013-01-12 01:33:00,
2013-01-11 20:43:00,33.0,29.0,30.32,South,180,0.0,0.0,86,0.00,,,0.00,,2013-01-12 01:43:00,
2013-01-11 20:53:00,33.0,30.0,30.31,SSW,202,0.0,0.0,87,0.00,,,0.00,,2013-01-12 01:53:00,
2013-01-11 21:02:00,34.0,31.0,30.31,SSW,202,0.0,0.0,88,0.00,,,0.00,,2013-01-12 02:02:00,
2013-01-11 21:12:00,34.0,31.0,30.31,SSW,202,0.0,0.0,88,0.00,,,0.00,,2013-01-12 02:12:00,
2013-01-11 21:22:00,34.0,31.0,30.29,SW,225,0.0,0.0,89,0.00,,,0.00,,2013-01-12 02:22:00,
2013-01-11 21:33:00,34.0,31.0,30.29,South,180,0.0,0.0,89,0.00,,,0.00,,2013-01-12 02:33:00,
2013-01-11 21:43:00,34.0,31.0,30.29,South,180,0.0,0.0,89,0.00,,,0.00,,2013-01-12 02:43:00,
2013-01-11 21:53:00,34.0,31.0,30.29,WSW,248,0.0,0.0,90,0.00,,,0.00,,2013-01-12 02:53:00,
2013-01-11 22:03:00,34.0,31.0,30.29,SSW,202,0.0,0.0,90,0.00,,,0.00,,2013-01-12 03:03:00,
2013-01-11 22:12:00,34.0,31.0,30.29,SSW,202,0.0,0.0,90,0.00,,,0.00,,2013-01-12 03:12:00,
2013-01-11 22:22:00,34.0,32.0,30.29,SSW,202,0.0,0.0,91,0.00,,,0.00,,2013-01-12 03:22:00,
2013-01-11 22:33:00,34.0,32.0,30.28,West,270,0.0,0.0,91,0.00,,,0.00,,2013-01-12 03:33:00,
2013-01-11 22:43:00,34.0,32.0,30.28,West,270,0.0,0.0,91,0.00,,,0.00,,2013-01-12 03:43:00,
2013-01-11 22:53:00,34.0,32.0,30.28,ESE,112,0.0,1.0,92,0.00,,,0.00,,2013-01-12 03:53:00,
2013-01-11 23:02:00,34.0,32.0,30.28,SW,225,0.0,0.0,92,0.00,,,0.00,,2013-01-12 04:02:00,
2013-01-11 23:12:00,34.0,32.0,30.28,SW,225,0.0,0.0,92,0.00,,,0.00,,2013-01-12 04:12:00,
2013-01-11 23:22:00,34.0,32.0,30.27,South,180,0.0,0.0,93,0.00,,,0.00,,2013-01-12 04:22:00,
2013-01-11 23:32:00,34.0,32.0,30.26,South,180,0.0,0.0,94,0.00,,,0.00,,2013-01-12 04:32:00,
2013-01-11 23:42:00,34.0,32.0,30.26,South,180,0.0,0.0,94,0.00,,,0.00,,2013-01-12 04:42:00,
2013-01-11 23:52:00,34.0,32.0,30.25,South,180,0.0,0.0,94,0.00,,,0.00,,2013-01-12 04:52:00,